Flag for Canada

Past Weather in Burnaby, British Columbia, Canada — Yesterday and Last 2 Weeks

Now
57 °F

Cool.


Feels Like: 57 °F
Forecast: 71 / 57 °F
Wind: 2 mph from North

Location: Vancouver International Airport
Current Time: Oct 1, 2020 at 6:49:01 am
Latest Report: Oct 1, 2020 at 5:00 am
Visibility: 20 mi
Pressure30.19 "Hg
Humidity: 94%
Dew Point: 55 °F
Location of BurnabyLocation

Past Weather in Burnaby — Graph

°F

Burnaby Temperature Yesterday

Maximum temperature yesterday: 68 °F (at 12:00 pm)
Minimum temperature yesterday: 52 °F (at 6:00 am)
Average temperature yesterday: 60 °F

High & Low Weather Summary for the Past Weeks

 TemperatureHumidityPressure
High70 °F (Sep 20, 4:00 pm)100% (Sep 16, 5:00 am)30.50 "Hg (Sep 16, 5:00 am)
Low48 °F (Sep 27, 2:00 am)53% (Sep 22, 2:00 pm)29.56 "Hg (Sep 25, 8:00 am)
Average59 °F88%30.00 "Hg
* Reported Sep 16 5:00 am — Oct 1 5:00 am, Burnaby. Weather by CustomWeather, © 2020

Note: Actual official high and low records may vary slightly from our data, if they occured in-between our weather recording intervals... More about our weather records

Burnaby Weather History for the Previous 24 Hours

Scroll right to see more
 ConditionsComfort  
Time TempWeatherWind HumidityBarometerVisibility
5:00 am
Thu, Oct 1
57 °FCool.2 mph94%30.19 "Hg20 mi
4:00 am55 °FFog.3 mph100%30.19 "Hg20 mi
3:00 am55 °FPassing clouds.6 mph94%30.19 "Hg20 mi
2:00 am55 °FPassing clouds.2 mph94%30.20 "Hg20 mi
1:00 am57 °FPassing clouds.3 mph88%30.19 "Hg20 mi
12:00 am59 °FPassing clouds.No wind94%30.19 "Hg20 mi
11:00 pm
Wed, Sep 30
57 °FPassing clouds.2 mph94%30.19 "Hg20 mi
10:00 pm59 °FPassing clouds.2 mph94%30.19 "Hg20 mi
9:00 pm59 °FPassing clouds.No wind94%30.19 "Hg20 mi
8:00 pm59 °FPassing clouds.2 mph94%30.18 "Hg20 mi
7:00 pm59 °FPassing clouds.6 mph94%30.16 "Hg20 mi
6:00 pm64 °FPassing clouds.2 mph83%30.16 "Hg20 mi
5:00 pm66 °FPassing clouds.5 mph78%30.17 "Hg20 mi
4:00 pm66 °FPassing clouds.3 mph73%30.18 "Hg20 mi
3:00 pm68 °FScattered clouds.6 mph69%30.19 "Hg20 mi
2:00 pm68 °FScattered clouds.6 mph69%30.19 "Hg20 mi
1:00 pm66 °FScattered clouds.6 mph73%30.20 "Hg20 mi
12:00 pm68 °FPassing clouds.3 mph73%30.19 "Hg20 mi
11:00 am64 °FScattered clouds.5 mph88%30.20 "Hg20 mi
10:00 am63 °FPartly sunny.No wind88%30.19 "Hg20 mi
9:00 am57 °FBroken clouds.2 mph100%30.16 "Hg20 mi
8:00 am54 °FPartly sunny.5 mph100%30.16 "Hg20 mi
7:00 am54 °FPassing clouds.6 mph94%30.14 "Hg20 mi
6:00 am52 °FPassing clouds.5 mph100%30.14 "Hg15 mi
Weather by CustomWeather, © 2020

See weather overview